Latest Coastal Weather Observations for Esperance Harbour

IDW60701

Issued at 8:13 pm WST Sunday 28 May 2017 (issued every 10 minutes, with the page automatically refreshed every 10 minutes)

About coastal observations | Map of coastal stations | Coastal observations for WA | Marine services | Other Formats
Station Details ID: 109504 Name: ESPERANCE NTC AWS Lat: -33.87 Lon: 121.90 Height: 0.0 m
Data from the previous 72 hours. | See also: Recent months for locations in Western Australia
Date/Time
WST
Temp
°C
Wind Pressure Rain since
9am
mm
Weather Cloud Vis
km
Sea
Height
m
Swell
Dir  Spd
kts
Gust
kts
hPa Trend Height
m
Period
s
Dir
28/08:00pm 12.9 - - - 1026.0 - - - - - - - - -
28/07:30pm 12.9 - - - 1025.8 - - - - - - - - -
28/07:00pm 12.9 - - - 1025.7 - - - - - - - - -
28/06:30pm 13.1 - - - 1025.7 - - - - - - - - -
28/06:00pm 13.3 - - - 1025.5 - - - - - - - - -
28/05:30pm 13.3 - - - 1025.3 - - - - - - - - -
28/05:00pm 13.7 - - - 1025.2 - - - - - - - - -
28/04:30pm 14.0 - - - 1025.2 - - - - - - - - -
28/04:00pm 13.9 - - - 1025.2 - - - - - - - - -
28/03:30pm 14.8 - - - 1025.0 - - - - - - - - -
28/03:00pm 14.5 - - - 1024.8 - - - - - - - - -
28/02:30pm 15.1 - - - 1024.8 - - - - - - - - -
28/02:00pm 15.8 - - - 1024.8 - - - - - - - - -
28/01:30pm 15.5 - - - 1024.9 - - - - - - - - -
28/01:00pm 15.4 - - - 1025.1 - - - - - - - - -
28/12:30pm 15.6 - - - 1025.3 - - - - - - - - -
28/12:00pm 15.0 - - - 1025.5 - - - - - - - - -
28/11:30am 14.9 - - - 1025.9 - - - - - - - - -
28/11:00am 14.5 - - - 1026.2 - - - - - - - - -
28/10:30am 13.9 - - - 1026.6 - - - - - - - - -
28/10:00am 13.4 - - - 1026.7 - - - - - - - - -
28/09:30am 13.0 - - - 1026.6 - - - - - - - - -
28/09:00am 12.5 - - - 1026.4 - - - - - - - - -
28/08:30am 12.2 - - - 1026.2 - - - - - - - - -
28/08:00am 12.0 - - - 1026.1 - - - - - - - - -
28/07:30am 11.7 - - - 1025.8 - - - - - - - - -
28/07:00am 11.7 - - - 1025.7 - - - - - - - - -
28/06:30am 11.9 - - - 1025.4 - - - - - - - - -
28/06:00am 12.1 - - - 1025.1 - - - - - - - - -
28/05:30am 12.8 - - - 1024.9 - - - - - - - - -
28/05:00am 14.0 - - - 1024.5 - - - - - - - - -
28/04:30am 14.1 - - - 1024.6 - - - - - - - - -
28/04:00am 14.3 - - - 1024.6 - - - - - - - - -
28/03:30am 13.9 - - - 1024.6 - - - - - - - - -
28/03:00am 14.5 - - - 1024.5 - - - - - - - - -
28/02:30am 14.3 - - - 1024.6 - - - - - - - - -
28/02:00am 14.9 - - - 1024.8 - - - - - - - - -
28/01:30am 14.6 - - - 1024.8 - - - - - - - - -
28/01:00am 14.3 - - - 1024.8 - - - - - - - - -
28/12:30am 14.7 - - - 1024.9 - - - - - - - - -
28/12:00am 14.7 - - - 1025.2 - - - - - - - - -
 
Date/Time
WST
Temp
°C
Wind Pressure Rain since
9am
mm
Weather Cloud Vis
km
Sea
Height
m
Swell
Dir  Spd
kts
Gust
kts
hPa Trend Height
m
Period
s
Dir
27/11:30pm 14.9 - - - 1025.1 - - - - - - - - -
27/11:00pm 14.6 - - - 1025.2 - - - - - - - - -
27/10:30pm 14.4 - - - 1025.2 - - - - - - - - -
27/10:00pm 14.9 - - - 1025.3 - - - - - - - - -
27/09:30pm 14.8 - - - 1025.5 - - - - - - - - -
27/09:00pm 14.6 - - - 1025.4 - - - - - - - - -
27/08:30pm 14.7 - - - 1025.3 - - - - - - - - -
27/08:00pm 14.7 - - - 1025.2 - - - - - - - - -
27/07:30pm 14.9 - - - 1025.3 - - - - - - - - -
27/07:00pm 14.8 - - - 1025.1 - - - - - - - - -
27/06:30pm 15.1 - - - 1024.9 - - - - - - - - -
27/06:00pm 15.2 - - - 1024.6 - - - - - - - - -
27/05:30pm 15.2 - - - 1024.2 - - - - - - - - -
27/05:00pm 15.1 - - - 1024.0 - - - - - - - - -
27/04:30pm 15.4 - - - 1023.8 - - - - - - - - -
27/04:00pm 15.3 - - - 1023.7 - - - - - - - - -
27/03:30pm 15.2 - - - 1023.5 - - - - - - - - -
27/03:00pm 14.8 - - - 1023.3 - - - - - - - - -
27/02:30pm 14.9 - - - 1023.1 - - - - - - - - -
27/02:00pm 15.3 - - - 1023.0 - - - - - - - - -
27/01:30pm 14.7 - - - 1023.1 - - - - - - - - -
27/01:00pm 13.7 - - - 1023.1 - - - - - - - - -
27/12:30pm 14.5 - - - 1023.4 - - - - - - - - -
27/12:00pm 16.2 - - - 1023.0 - - - - - - - - -
27/11:30am 16.5 - - - 1023.2 - - - - - - - - -
27/11:00am 16.9 - - - 1023.1 - - - - - - - - -
27/10:30am 16.9 - - - 1023.2 - - - - - - - - -
27/10:00am 16.7 - - - 1023.3 - - - - - - - - -
27/09:30am 16.3 - - - 1023.2 - - - - - - - - -
27/09:00am 14.9 - - - 1023.1 - - - - - - - - -
27/08:30am 16.1 - - - 1022.6 - - - - - - - - -
27/08:00am 15.6 - - - 1022.4 - - - - - - - - -
27/07:30am 15.6 - - - 1022.0 - - - - - - - - -
27/07:00am 15.5 - - - 1021.8 - - - - - - - - -
27/06:30am 15.6 - - - 1021.5 - - - - - - - - -
27/06:00am 15.5 - - - 1021.2 - - - - - - - - -
27/05:30am 15.3 - - - 1021.0 - - - - - - - - -
27/05:00am 15.4 - - - 1020.6 - - - - - - - - -
27/04:30am 15.3 - - - 1020.6 - - - - - - - - -
27/04:00am 15.4 - - - 1020.6 - - - - - - - - -
27/03:30am 15.4 - - - 1020.4 - - - - - - - - -
27/03:00am 15.1 - - - 1020.4 - - - - - - - - -
27/02:30am 15.1 - - - 1020.4 - - - - - - - - -
27/02:00am 15.2 - - - 1020.4 - - - - - - - - -
27/01:30am 15.1 - - - 1020.3 - - - - - - - - -
27/01:00am 15.2 - - - 1020.4 - - - - - - - - -
27/12:30am 14.8 - - - 1020.3 - - - - - - - - -
27/12:00am 15.2 - - - 1020.2 - - - - - - - - -
 
Date/Time
WST
Temp
°C
Wind Pressure Rain since
9am
mm
Weather Cloud Vis
km
Sea
Height
m
Swell
Dir  Spd
kts
Gust
kts
hPa Trend Height
m
Period
s
Dir
26/11:30pm 15.0 - - - 1019.9 - - - - - - - - -
26/11:00pm 14.9 - - - 1019.6 - - - - - - - - -
26/10:30pm 14.4 - - - 1019.6 - - - - - - - - -
26/10:00pm 14.5 - - - 1019.8 - - - - - - - - -
26/09:30pm 15.2 - - - 1019.6 - - - - - - - - -
26/09:00pm 14.6 - - - 1019.4 - - - - - - - - -
26/08:30pm 14.4 - - - 1019.1 - - - - - - - - -
26/08:00pm 14.1 - - - 1019.0 - - - - - - - - -
26/07:30pm 14.3 - - - 1018.9 - - - - - - - - -
26/07:00pm 14.2 - - - 1018.9 - - - - - - - - -
26/06:30pm 14.1 - - - 1018.6 - - - - - - - - -
26/06:00pm 14.4 - - - 1018.3 - - - - - - - - -
26/05:30pm 14.4 - - - 1018.1 - - - - - - - - -
26/05:00pm 14.6 - - - 1017.8 - - - - - - - - -
26/04:30pm 14.9 - - - 1017.8 - - - - - - - - -
26/04:00pm 15.1 - - - 1017.7 - - - - - - - - -
26/03:30pm 15.3 - - - 1017.7 - - - - - - - - -
26/03:00pm 15.7 - - - 1017.2 - - - - - - - - -
26/02:30pm 16.0 - - - 1017.0 - - - - - - - - -
26/02:00pm 15.5 - - - 1016.8 - - - - - - - - -
26/01:30pm 15.5 - - - 1016.8 - - - - - - - - -
26/01:00pm 17.1 - - - 1016.5 - - - - - - - - -
26/12:30pm 15.9 - - - 1016.9 - - - - - - - - -
26/12:00pm 18.0 - - - 1017.2 - - - - - - - - -
26/11:30am 18.5 - - - 1017.1 - - - - - - - - -
26/11:00am 18.2 - - - 1017.2 - - - - - - - - -
26/10:30am 17.8 - - - 1017.2 - - - - - - - - -
26/10:00am 17.5 - - - 1017.3 - - - - - - - - -
26/09:30am 16.4 - - - 1017.3 - - - - - - - - -
26/09:00am 15.6 - - - 1017.2 - - - - - - - - -
26/08:30am 14.8 - - - 1016.9 - - - - - - - - -
26/08:00am 13.2 - - - 1016.9 - - - - - - - - -
26/07:30am 12.1 - - - 1016.7 - - - - - - - - -
26/07:00am 11.4 - - - 1016.5 - - - - - - - - -
26/06:30am 11.2 - - - 1016.2 - - - - - - - - -
26/06:00am 11.2 - - - 1016.0 - - - - - - - - -
26/05:30am 11.1 - - - 1015.8 - - - - - - - - -
26/05:00am 11.2 - - - 1015.7 - - - - - - - - -
26/04:30am 11.3 - - - 1015.7 - - - - - - - - -
26/04:00am 11.3 - - - 1015.7 - - - - - - - - -
26/03:30am 11.5 - - - 1015.7 - - - - - - - - -
26/03:00am 11.6 - - - 1015.9 - - - - - - - - -
26/02:30am 11.8 - - - 1015.8 - - - - - - - - -
26/02:00am 12.1 - - - 1015.9 - - - - - - - - -
26/01:30am 12.2 - - - 1015.7 - - - - - - - - -
26/01:00am 12.3 - - - 1015.8 - - - - - - - - -
26/12:30am 12.7 - - - 1016.0 - - - - - - - - -
26/12:00am 13.2 - - - 1016.2 - - - - - - - - -
 
Date/Time
WST
Temp
°C
Wind Pressure Rain since
9am
mm
Weather Cloud Vis
km
Sea
Height
m
Swell
Dir  Spd
kts
Gust
kts
hPa Trend Height
m
Period
s
Dir
25/11:30pm 13.4 - - - 1016.5 - - - - - - - - -
25/11:00pm 13.8 - - - 1016.6 - - - - - - - - -
25/10:30pm 13.8 - - - 1016.8 - - - - - - - - -
25/10:00pm 15.0 - - - 1016.9 - - - - - - - - -
25/09:30pm 15.6 - - - 1017.0 - - - - - - - - -
25/09:00pm 15.5 - - - 1017.2 - - - - - - - - -
25/08:30pm 15.9 - - - 1017.6 - - - - - - - - -

Other Formats:

Comma delimited format used in spreadsheet applications
http://www.bom.gov.au/fwo/IDW60701/IDW60701.95648.axf

JavaScript Object Notation format (JSON) in row-major order
http://www.bom.gov.au/fwo/IDW60701/IDW60701.95648.json